DAL1023 KDTW-KMEM

Flight info

Callsign DAL1023
Flight time 1h 39m
Altitude 36000
Route BARII3 SINKR PXV BLUZZ5
Aircraft A320/M-SDE3FGHIRWY/LB1

Departure

Time 2026-05-05 16:53
Airport Detroit Metropolitan Wayne County Airport (KDTW)

Arrival

Time 2026-05-05 18:33
Airport Memphis International Airport (KMEM)
Time Latitude Longitude Altitude Speed Heading
2026-05-05 16:28 42.21332 -83.35355 660 ft 0 kts 299°
2026-05-05 16:42 42.21327 -83.35344 659 ft 4 kts 299°
2026-05-05 16:43 42.21314 -83.35313 659 ft 4 kts 311°
2026-05-05 16:43 42.21293 -83.35293 659 ft 4 kts 352°
2026-05-05 16:43 42.21269 -83.35298 659 ft 2 kts 28°
2026-05-05 16:43 42.21264 -83.35301 659 ft 0 kts 28°
2026-05-05 16:46 42.21266 -83.35300 659 ft 0 kts 28°
2026-05-05 16:46 42.21278 -83.35291 659 ft 5 kts 28°
2026-05-05 16:46 42.21323 -83.35258 659 ft 9 kts 28°
2026-05-05 16:47 42.21380 -83.35217 659 ft 10 kts 27°
2026-05-05 16:47 42.21447 -83.35174 659 ft 12 kts 23°
2026-05-05 16:47 42.21527 -83.35128 659 ft 13 kts 26°
2026-05-05 16:47 42.21594 -83.35055 659 ft 12 kts 45°
2026-05-05 16:48 42.21656 -83.34970 659 ft 14 kts 45°
2026-05-05 16:48 42.21727 -83.34873 659 ft 15 kts 46°
2026-05-05 16:48 42.21798 -83.34774 659 ft 10 kts 46°
2026-05-05 16:48 42.21834 -83.34683 659 ft 12 kts 83°
2026-05-05 16:49 42.21836 -83.34575 659 ft 10 kts 89°
2026-05-05 16:49 42.21865 -83.34493 659 ft 11 kts 32°
2026-05-05 16:49 42.21937 -83.34438 659 ft 13 kts 29°
2026-05-05 16:49 42.22021 -83.34376 659 ft 15 kts 28°
2026-05-05 16:50 42.22117 -83.34306 659 ft 17 kts 28°
2026-05-05 16:50 42.22224 -83.34228 659 ft 18 kts 29°
2026-05-05 16:50 42.22343 -83.34141 659 ft 20 kts 28°
2026-05-05 16:50 42.22473 -83.34047 659 ft 22 kts 29°
2026-05-05 16:51 42.22613 -83.33942 659 ft 23 kts 28°
2026-05-05 16:51 42.22732 -83.33859 659 ft 11 kts 28°
2026-05-05 16:51 42.22800 -83.33806 659 ft 11 kts 30°
2026-05-05 16:51 42.22850 -83.33738 659 ft 10 kts 105°
2026-05-05 16:52 42.22824 -83.33662 659 ft 7 kts 129°
2026-05-05 16:52 42.22778 -83.33655 659 ft 7 kts 200°
2026-05-05 16:52 42.22732 -83.33686 659 ft 8 kts 208°
2026-05-05 16:52 42.22635 -83.33756 660 ft 45 kts 211°
2026-05-05 16:53 42.22115 -83.34146 660 ft 123 kts 211°
2026-05-05 16:53 42.21210 -83.34771 920 ft 154 kts 209°
2026-05-05 16:53 42.20253 -83.35391 1796 ft 150 kts 209°
2026-05-05 16:53 42.19316 -83.35992 2606 ft 154 kts 210°
2026-05-05 16:54 42.18258 -83.36528 3003 ft 173 kts 200°
2026-05-05 16:54 42.17017 -83.36856 3420 ft 189 kts 196°
2026-05-05 16:54 42.15664 -83.37163 3830 ft 206 kts 195°
2026-05-05 16:54 42.14218 -83.37571 4253 ft 220 kts 201°
2026-05-05 16:55 42.12681 -83.38204 4671 ft 242 kts 202°
2026-05-05 16:55 42.10997 -83.38836 5257 ft 259 kts 200°
2026-05-05 16:55 42.09229 -83.39473 6042 ft 264 kts 200°
2026-05-05 16:55 42.07441 -83.40140 6687 ft 263 kts 201°
2026-05-05 16:56 42.05696 -83.40816 6981 ft 264 kts 202°
2026-05-05 16:56 42.03933 -83.41504 6999 ft 264 kts 202°
2026-05-05 16:56 42.02164 -83.42185 6992 ft 264 kts 201°
2026-05-05 16:56 42.00398 -83.42859 6990 ft 264 kts 201°
2026-05-05 16:57 41.98633 -83.43530 6985 ft 262 kts 201°
2026-05-05 16:57 41.96871 -83.44200 7003 ft 263 kts 202°
2026-05-05 16:57 41.95140 -83.44972 7034 ft 260 kts 207°
2026-05-05 16:57 41.93475 -83.45900 7369 ft 259 kts 209°
2026-05-05 16:58 41.91811 -83.46885 8059 ft 264 kts 209°
2026-05-05 16:58 41.90118 -83.47873 8928 ft 267 kts 208°
2026-05-05 16:58 41.88407 -83.48847 9835 ft 267 kts 208°
2026-05-05 16:58 41.86681 -83.49821 10646 ft 272 kts 208°
2026-05-05 16:59 41.84900 -83.50834 11222 ft 285 kts 207°
2026-05-05 16:59 41.83046 -83.51892 11677 ft 300 kts 207°
2026-05-05 16:59 41.81100 -83.52994 12339 ft 306 kts 207°
2026-05-05 16:59 41.79130 -83.54101 13068 ft 310 kts 207°
2026-05-05 17:00 41.77127 -83.55229 13799 ft 313 kts 207°
2026-05-05 17:00 41.75111 -83.56372 14496 ft 315 kts 208°
2026-05-05 17:00 41.73080 -83.57525 15163 ft 319 kts 208°
2026-05-05 17:00 41.71024 -83.58694 15781 ft 323 kts 208°
2026-05-05 17:01 41.68976 -83.59968 16416 ft 325 kts 211°
2026-05-05 17:01 41.66937 -83.61306 17012 ft 328 kts 211°
2026-05-05 17:01 41.64856 -83.62700 17612 ft 332 kts 212°
2026-05-05 17:01 41.62804 -83.64072 18189 ft 335 kts 212°
2026-05-05 17:02 41.60704 -83.65465 18753 ft 339 kts 212°
2026-05-05 17:02 41.58579 -83.66863 19303 ft 342 kts 212°
2026-05-05 17:02 41.56438 -83.68269 19841 ft 344 kts 212°
2026-05-05 17:02 41.54250 -83.69709 20365 ft 348 kts 212°
2026-05-05 17:03 41.52073 -83.71145 20874 ft 350 kts 212°
2026-05-05 17:03 41.49878 -83.72589 21371 ft 353 kts 213°
2026-05-05 17:03 41.47661 -83.74040 21853 ft 356 kts 213°
2026-05-05 17:03 41.45426 -83.75503 22315 ft 359 kts 213°
2026-05-05 17:04 41.43172 -83.76978 22773 ft 362 kts 213°
2026-05-05 17:04 41.40902 -83.78462 23218 ft 365 kts 213°
2026-05-05 17:04 41.38616 -83.79959 23641 ft 368 kts 213°
2026-05-05 17:04 41.36342 -83.81446 24056 ft 370 kts 213°
2026-05-05 17:05 41.34021 -83.82961 24465 ft 373 kts 213°
2026-05-05 17:05 41.31682 -83.84484 24871 ft 375 kts 213°
2026-05-05 17:05 41.29330 -83.86018 25281 ft 377 kts 213°
2026-05-05 17:05 41.26971 -83.87558 25675 ft 379 kts 213°
2026-05-05 17:06 41.24596 -83.89104 26057 ft 381 kts 213°
2026-05-05 17:06 41.22205 -83.90659 26427 ft 383 kts 213°
2026-05-05 17:06 41.19810 -83.92216 26798 ft 385 kts 213°
2026-05-05 17:06 41.17386 -83.93787 27139 ft 387 kts 213°
2026-05-05 17:07 41.14989 -83.95343 27477 ft 389 kts 213°
2026-05-05 17:07 41.12550 -83.96927 27804 ft 391 kts 213°
2026-05-05 17:07 41.10102 -83.98515 28131 ft 393 kts 213°
2026-05-05 17:07 41.07633 -84.00117 28441 ft 395 kts 213°
2026-05-05 17:08 41.05158 -84.01717 28769 ft 396 kts 213°
2026-05-05 17:08 41.02678 -84.03318 29091 ft 397 kts 213°
2026-05-05 17:08 41.00182 -84.04929 29382 ft 399 kts 214°
2026-05-05 17:08 40.97679 -84.06546 29668 ft 401 kts 214°
2026-05-05 17:09 40.95159 -84.08176 29948 ft 403 kts 214°
2026-05-05 17:09 40.92630 -84.09807 30288 ft 403 kts 214°
2026-05-05 17:09 40.90111 -84.11420 30731 ft 400 kts 214°
2026-05-05 17:09 40.87598 -84.12979 31147 ft 399 kts 213°
2026-05-05 17:10 40.85105 -84.14482 31550 ft 397 kts 214°
2026-05-05 17:10 40.82600 -84.15987 32008 ft 393 kts 214°
2026-05-05 17:10 40.80117 -84.17481 32380 ft 391 kts 214°
2026-05-05 17:10 40.77646 -84.18972 32783 ft 388 kts 215°
2026-05-05 17:11 40.75204 -84.20446 33189 ft 385 kts 216°
2026-05-05 17:11 40.72771 -84.21907 33576 ft 382 kts 216°
2026-05-05 17:11 40.70361 -84.23354 33936 ft 380 kts 217°
2026-05-05 17:11 40.67963 -84.24797 34266 ft 378 kts 217°
2026-05-05 17:12 40.65566 -84.26240 34470 ft 380 kts 217°
2026-05-05 17:12 40.63151 -84.27697 34643 ft 381 kts 217°
2026-05-05 17:12 40.60735 -84.29146 34859 ft 382 kts 217°
2026-05-05 17:12 40.58311 -84.30595 35060 ft 383 kts 217°
2026-05-05 17:13 40.55907 -84.32035 35172 ft 386 kts 217°
2026-05-05 17:13 40.53459 -84.33497 35385 ft 386 kts 217°
2026-05-05 17:13 40.51012 -84.34961 35554 ft 387 kts 217°
2026-05-05 17:13 40.48544 -84.36433 35695 ft 389 kts 217°
2026-05-05 17:14 40.46136 -84.37994 35846 ft 382 kts 222°
2026-05-05 17:14 40.43995 -84.39969 35885 ft 371 kts 232°
2026-05-05 17:14 40.40497 -84.44832 35893 ft 364 kts 238°
2026-05-05 17:15 40.37125 -84.49816 35891 ft 365 kts 237°
2026-05-05 17:15 40.33675 -84.54650 35872 ft 365 kts 236°
2026-05-05 17:16 40.30189 -84.59524 35891 ft 368 kts 237°
2026-05-05 17:16 40.26693 -84.64455 35908 ft 369 kts 237°
2026-05-05 17:17 40.23193 -84.69351 35921 ft 366 kts 236°
2026-05-05 17:17 40.20308 -84.73385 35911 ft 363 kts 237°
2026-05-05 17:18 40.16874 -84.78198 35885 ft 361 kts 236°
2026-05-05 17:18 40.13441 -84.82990 35819 ft 360 kts 236°
2026-05-05 17:19 40.10021 -84.87747 35825 ft 359 kts 236°
2026-05-05 17:19 40.06611 -84.92505 35833 ft 358 kts 236°
2026-05-05 17:20 40.03190 -84.97259 35838 ft 359 kts 236°
2026-05-05 17:20 39.99756 -85.02016 35853 ft 360 kts 236°
2026-05-05 17:21 39.96322 -85.06779 35873 ft 366 kts 237°
2026-05-05 17:22 39.91066 -85.14042 35877 ft 368 kts 236°
2026-05-05 17:22 39.87531 -85.18913 35852 ft 369 kts 236°
2026-05-05 17:23 39.83998 -85.23772 35821 ft 368 kts 236°
2026-05-05 17:23 39.80492 -85.28596 35847 ft 368 kts 236°
2026-05-05 17:24 39.76965 -85.33444 35863 ft 369 kts 236°
2026-05-05 17:24 39.73434 -85.38281 35909 ft 368 kts 236°
2026-05-05 17:25 39.69914 -85.43109 35909 ft 368 kts 236°
2026-05-05 17:25 39.66382 -85.47938 35909 ft 368 kts 236°
2026-05-05 17:26 39.62855 -85.52745 35903 ft 368 kts 236°
2026-05-05 17:26 39.59327 -85.57544 35856 ft 368 kts 236°
2026-05-05 17:27 39.55800 -85.62346 35821 ft 368 kts 236°
2026-05-05 17:27 39.52269 -85.67137 35847 ft 366 kts 236°
2026-05-05 17:28 39.48760 -85.71898 35872 ft 365 kts 236°
2026-05-05 17:28 39.45248 -85.76660 35831 ft 366 kts 236°
2026-05-05 17:29 39.41717 -85.81425 35833 ft 367 kts 236°
2026-05-05 17:29 39.38175 -85.86203 35838 ft 368 kts 236°
2026-05-05 17:30 39.34628 -85.90984 35859 ft 368 kts 236°
2026-05-05 17:30 39.31050 -85.95801 35835 ft 370 kts 236°
2026-05-05 17:31 39.27478 -86.00596 35860 ft 370 kts 236°
2026-05-05 17:31 39.23931 -86.05346 35913 ft 369 kts 236°
2026-05-05 17:32 39.20362 -86.10131 35885 ft 371 kts 236°
2026-05-05 17:32 39.16771 -86.14928 35839 ft 372 kts 236°
2026-05-05 17:33 39.13172 -86.19730 35837 ft 372 kts 236°
2026-05-05 17:33 39.09570 -86.24529 35853 ft 373 kts 236°
2026-05-05 17:34 39.05955 -86.29342 35841 ft 374 kts 236°
2026-05-05 17:34 39.02330 -86.34156 35837 ft 375 kts 236°
2026-05-05 17:35 38.98712 -86.38956 35845 ft 376 kts 236°
2026-05-05 17:35 38.95067 -86.43785 35863 ft 377 kts 236°
2026-05-05 17:36 38.91410 -86.48616 35903 ft 377 kts 236°
2026-05-05 17:36 38.87755 -86.53435 35929 ft 376 kts 237°
2026-05-05 17:37 38.84104 -86.58252 35895 ft 377 kts 237°
2026-05-05 17:37 38.80463 -86.63048 35850 ft 377 kts 236°
2026-05-05 17:38 38.76796 -86.67866 35832 ft 378 kts 237°
2026-05-05 17:38 38.73117 -86.72691 35831 ft 378 kts 236°
2026-05-05 17:39 38.69430 -86.77517 35831 ft 379 kts 237°
2026-05-05 17:39 38.65733 -86.82356 35832 ft 380 kts 236°
2026-05-05 17:40 38.62047 -86.87170 35869 ft 381 kts 236°
2026-05-05 17:40 38.58339 -86.91994 35924 ft 380 kts 236°
2026-05-05 17:41 38.54634 -86.96820 35910 ft 380 kts 237°
2026-05-05 17:41 38.50931 -87.01634 35912 ft 379 kts 237°
2026-05-05 17:42 38.47225 -87.06441 35871 ft 379 kts 236°
2026-05-05 17:42 38.43545 -87.11214 35833 ft 380 kts 237°
2026-05-05 17:43 38.39826 -87.16021 35839 ft 380 kts 236°
2026-05-05 17:43 38.36109 -87.20823 35835 ft 381 kts 236°
2026-05-05 17:44 38.32376 -87.25638 35836 ft 382 kts 237°
2026-05-05 17:44 38.28628 -87.30460 35861 ft 383 kts 237°
2026-05-05 17:45 38.24877 -87.35283 35914 ft 383 kts 237°
2026-05-05 17:45 38.21127 -87.40097 35923 ft 383 kts 237°
2026-05-05 17:46 38.17378 -87.44898 35921 ft 383 kts 237°
2026-05-05 17:46 38.13625 -87.49699 35902 ft 383 kts 237°
2026-05-05 17:47 38.09868 -87.54504 35855 ft 383 kts 237°
2026-05-05 17:47 38.06105 -87.59299 35837 ft 383 kts 237°
2026-05-05 17:48 38.02352 -87.64083 35834 ft 383 kts 236°
2026-05-05 17:48 37.98581 -87.68876 35840 ft 383 kts 237°
2026-05-05 17:49 37.94817 -87.73663 35832 ft 383 kts 237°
2026-05-05 17:49 37.90456 -87.77817 35846 ft 408 kts 221°
2026-05-05 17:50 37.85279 -87.80932 35881 ft 417 kts 218°
2026-05-05 17:50 37.80042 -87.84000 35882 ft 415 kts 219°
2026-05-05 17:51 37.74853 -87.87196 35876 ft 415 kts 219°
2026-05-05 17:51 37.69659 -87.90409 35891 ft 415 kts 219°
2026-05-05 17:52 37.64449 -87.93574 35866 ft 416 kts 218°
2026-05-05 17:52 37.59254 -87.96725 35847 ft 412 kts 219°
2026-05-05 17:53 37.54114 -87.99852 35846 ft 408 kts 219°
2026-05-05 17:53 37.48987 -88.02967 35860 ft 408 kts 219°
2026-05-05 17:54 37.43837 -88.06108 35885 ft 413 kts 219°
2026-05-05 17:54 37.38654 -88.09229 35891 ft 413 kts 219°
2026-05-05 17:55 37.33469 -88.12357 35898 ft 414 kts 219°
2026-05-05 17:55 37.28304 -88.15483 35911 ft 415 kts 219°
2026-05-05 17:56 37.23944 -88.18107 35935 ft 415 kts 219°
2026-05-05 17:56 37.17895 -88.21741 35934 ft 413 kts 219°
2026-05-05 17:57 37.13610 -88.24311 35702 ft 407 kts 219°
2026-05-05 17:57 37.11052 -88.25843 35413 ft 406 kts 219°
2026-05-05 17:57 37.08506 -88.27375 35158 ft 406 kts 219°
2026-05-05 17:57 37.05957 -88.28910 34919 ft 405 kts 219°
2026-05-05 17:58 37.03422 -88.30426 34657 ft 402 kts 219°
2026-05-05 17:58 37.00904 -88.31932 34407 ft 401 kts 219°
2026-05-05 17:58 36.98384 -88.33442 34159 ft 401 kts 218°
2026-05-05 17:58 36.95863 -88.34945 33904 ft 399 kts 218°
2026-05-05 17:59 36.93356 -88.36438 33656 ft 398 kts 218°
2026-05-05 17:59 36.90865 -88.37918 33403 ft 396 kts 218°
2026-05-05 17:59 36.88386 -88.39397 33155 ft 393 kts 218°
2026-05-05 17:59 36.85923 -88.40871 32912 ft 391 kts 218°
2026-05-05 18:00 36.83469 -88.42334 32667 ft 389 kts 218°
2026-05-05 18:00 36.81028 -88.43785 32428 ft 388 kts 218°
2026-05-05 18:00 36.78603 -88.45231 32179 ft 385 kts 217°
2026-05-05 18:00 36.76192 -88.46666 31952 ft 383 kts 217°
2026-05-05 18:01 36.73792 -88.48091 31707 ft 381 kts 217°
2026-05-05 18:01 36.71399 -88.49508 31459 ft 379 kts 217°
2026-05-05 18:01 36.69021 -88.50913 31212 ft 377 kts 217°
2026-05-05 18:01 36.66663 -88.52307 30965 ft 375 kts 217°
2026-05-05 18:02 36.64332 -88.53688 30721 ft 374 kts 216°
2026-05-05 18:02 36.61993 -88.55075 30473 ft 372 kts 216°
2026-05-05 18:02 36.59660 -88.56457 30226 ft 370 kts 216°
2026-05-05 18:02 36.57341 -88.57827 29979 ft 368 kts 216°
2026-05-05 18:03 36.55036 -88.59188 29731 ft 366 kts 216°
2026-05-05 18:03 36.52736 -88.60543 29484 ft 365 kts 216°
2026-05-05 18:03 36.50452 -88.61892 29236 ft 362 kts 216°
2026-05-05 18:03 36.48180 -88.63236 28989 ft 361 kts 216°
2026-05-05 18:04 36.45911 -88.64573 28741 ft 359 kts 215°
2026-05-05 18:04 36.43653 -88.65897 28493 ft 358 kts 215°
2026-05-05 18:04 36.41403 -88.67220 28247 ft 357 kts 215°
2026-05-05 18:04 36.39159 -88.68541 27998 ft 356 kts 215°
2026-05-05 18:05 36.36923 -88.69858 27750 ft 355 kts 215°
2026-05-05 18:05 36.34701 -88.71163 27502 ft 353 kts 215°
2026-05-05 18:05 36.32483 -88.72461 27254 ft 351 kts 214°
2026-05-05 18:05 36.30279 -88.73750 27007 ft 350 kts 214°
2026-05-05 18:06 36.28078 -88.75038 26675 ft 349 kts 214°
2026-05-05 18:06 36.26634 -88.75886 26384 ft 347 kts 214°
2026-05-05 18:06 36.23731 -88.77589 25800 ft 343 kts 214°
2026-05-05 18:06 36.21571 -88.78852 25365 ft 341 kts 214°
2026-05-05 18:07 36.19436 -88.80100 24926 ft 339 kts 214°
2026-05-05 18:07 36.17311 -88.81341 24460 ft 337 kts 213°
2026-05-05 18:07 36.15192 -88.82577 24017 ft 335 kts 213°
2026-05-05 18:07 36.13089 -88.83801 23580 ft 333 kts 213°
2026-05-05 18:08 36.11001 -88.85018 23143 ft 331 kts 213°
2026-05-05 18:08 36.08945 -88.86219 22713 ft 330 kts 213°
2026-05-05 18:08 36.06872 -88.87425 22298 ft 328 kts 212°
2026-05-05 18:08 36.04814 -88.88622 21884 ft 326 kts 212°
2026-05-05 18:09 36.02771 -88.89810 21471 ft 324 kts 212°
2026-05-05 18:09 36.00736 -88.90993 21059 ft 322 kts 212°
2026-05-05 18:09 35.98711 -88.92167 20653 ft 321 kts 212°
2026-05-05 18:09 35.96694 -88.93335 20270 ft 319 kts 212°
2026-05-05 18:10 35.94689 -88.94496 19885 ft 317 kts 212°
2026-05-05 18:10 35.92693 -88.95657 19492 ft 316 kts 212°
2026-05-05 18:10 35.90711 -88.96811 19101 ft 315 kts 212°
2026-05-05 18:10 35.88733 -88.97960 18721 ft 313 kts 212°
2026-05-05 18:11 35.86764 -88.99098 18361 ft 312 kts 211°
2026-05-05 18:11 35.84804 -89.00229 18002 ft 310 kts 211°
2026-05-05 18:11 35.82855 -89.01353 17644 ft 309 kts 211°
2026-05-05 18:11 35.80910 -89.02478 17285 ft 307 kts 211°
2026-05-05 18:12 35.78980 -89.03595 16933 ft 306 kts 211°
2026-05-05 18:12 35.77072 -89.04697 16655 ft 301 kts 211°
2026-05-05 18:12 35.75172 -89.05789 16356 ft 299 kts 211°
2026-05-05 18:12 35.73322 -89.06927 16035 ft 294 kts 217°
2026-05-05 18:13 35.71764 -89.08498 15738 ft 287 kts 228°
2026-05-05 18:13 35.70395 -89.10253 15472 ft 283 kts 231°
2026-05-05 18:13 35.69073 -89.12041 15150 ft 283 kts 231°
2026-05-05 18:13 35.67745 -89.13829 14794 ft 283 kts 231°
2026-05-05 18:14 35.66393 -89.15608 14438 ft 284 kts 230°
2026-05-05 18:14 35.65032 -89.17366 14083 ft 285 kts 230°
2026-05-05 18:14 35.63660 -89.19126 13733 ft 285 kts 230°
2026-05-05 18:14 35.62291 -89.20886 13369 ft 284 kts 230°
2026-05-05 18:15 35.60930 -89.22639 13019 ft 284 kts 230°
2026-05-05 18:15 35.59609 -89.24442 12661 ft 282 kts 233°
2026-05-05 18:15 35.58361 -89.26295 12338 ft 281 kts 234°
2026-05-05 18:15 35.57137 -89.28146 11951 ft 277 kts 233°
2026-05-05 18:16 35.55939 -89.29957 11622 ft 268 kts 233°
2026-05-05 18:16 35.54782 -89.31693 11401 ft 258 kts 233°
2026-05-05 18:16 35.53668 -89.33357 11262 ft 248 kts 233°
2026-05-05 18:16 35.52593 -89.35027 10934 ft 250 kts 238°
2026-05-05 18:17 35.51761 -89.36923 10412 ft 255 kts 245°
2026-05-05 18:17 35.51037 -89.38944 9819 ft 262 kts 246°
2026-05-05 18:17 35.50359 -89.40992 9359 ft 263 kts 247°
2026-05-05 18:17 35.49693 -89.43078 8913 ft 263 kts 247°
2026-05-05 18:18 35.49040 -89.45171 8478 ft 262 kts 247°
2026-05-05 18:18 35.48390 -89.47278 8058 ft 260 kts 248°
2026-05-05 18:18 35.47765 -89.49320 7647 ft 258 kts 248°
2026-05-05 18:18 35.47142 -89.51369 7229 ft 255 kts 248°
2026-05-05 18:19 35.46527 -89.53403 6818 ft 253 kts 248°
2026-05-05 18:19 35.45923 -89.55416 6389 ft 251 kts 248°
2026-05-05 18:19 35.45326 -89.57417 5962 ft 249 kts 248°
2026-05-05 18:19 35.44739 -89.59398 5529 ft 247 kts 247°
2026-05-05 18:20 35.44162 -89.61382 5065 ft 246 kts 247°
2026-05-05 18:20 35.43601 -89.63364 4602 ft 246 kts 247°
2026-05-05 18:20 35.43057 -89.65346 4141 ft 245 kts 247°
2026-05-05 18:20 35.42530 -89.67326 3750 ft 243 kts 247°
2026-05-05 18:21 35.42026 -89.69299 3301 ft 243 kts 248°
2026-05-05 18:21 35.41531 -89.71282 2997 ft 239 kts 248°
2026-05-05 18:21 35.41084 -89.73161 2983 ft 220 kts 248°
2026-05-05 18:21 35.40686 -89.74900 2984 ft 204 kts 248°
2026-05-05 18:22 35.40326 -89.76532 2982 ft 192 kts 248°
2026-05-05 18:22 35.39997 -89.78069 2991 ft 182 kts 248°
2026-05-05 18:22 35.39680 -89.79568 2996 ft 181 kts 248°
2026-05-05 18:22 35.39363 -89.81069 2996 ft 181 kts 248°
2026-05-05 18:23 35.39053 -89.82544 2992 ft 181 kts 248°
2026-05-05 18:23 35.38739 -89.84041 2993 ft 182 kts 248°
2026-05-05 18:23 35.38426 -89.85537 2997 ft 182 kts 248°
2026-05-05 18:23 35.38111 -89.87036 2991 ft 181 kts 248°
2026-05-05 18:24 35.37798 -89.88532 2984 ft 181 kts 248°
2026-05-05 18:24 35.37467 -89.90043 2982 ft 180 kts 245°
2026-05-05 18:24 35.37015 -89.91437 2981 ft 176 kts 235°
2026-05-05 18:24 35.36340 -89.92658 2988 ft 172 kts 223°
2026-05-05 18:25 35.35482 -89.93651 2979 ft 168 kts 213°
2026-05-05 18:25 35.34827 -89.94195 2985 ft 168 kts 207°
2026-05-05 18:25 35.33421 -89.94940 2981 ft 166 kts 195°
2026-05-05 18:25 35.32308 -89.95313 2981 ft 165 kts 193°
2026-05-05 18:26 35.31192 -89.95670 2991 ft 166 kts 194°
2026-05-05 18:26 35.30081 -89.96043 2985 ft 166 kts 194°
2026-05-05 18:26 35.28968 -89.96426 2993 ft 166 kts 194°
2026-05-05 18:26 35.27868 -89.96802 3013 ft 159 kts 194°
2026-05-05 18:27 35.26857 -89.97147 2993 ft 144 kts 194°
2026-05-05 18:27 35.25921 -89.97468 2993 ft 137 kts 194°
2026-05-05 18:27 35.25000 -89.97775 2991 ft 137 kts 194°
2026-05-05 18:27 35.24070 -89.98019 2988 ft 137 kts 186°
2026-05-05 18:28 35.22170 -89.97978 2770 ft 136 kts 179°
2026-05-05 18:28 35.21223 -89.97951 2640 ft 136 kts 180°
2026-05-05 18:28 35.20278 -89.97930 2510 ft 135 kts 180°
2026-05-05 18:29 35.19336 -89.97910 2376 ft 135 kts 180°
2026-05-05 18:29 35.18398 -89.97889 2255 ft 135 kts 180°
2026-05-05 18:29 35.17457 -89.97871 2128 ft 135 kts 179°
2026-05-05 18:29 35.16524 -89.97852 2000 ft 134 kts 179°
2026-05-05 18:30 35.15593 -89.97834 1990 ft 134 kts 179°
2026-05-05 18:30 35.14661 -89.97813 1994 ft 134 kts 180°
2026-05-05 18:30 35.13723 -89.97790 1959 ft 135 kts 179°
2026-05-05 18:30 35.12792 -89.97772 1792 ft 133 kts 180°
2026-05-05 18:31 35.11861 -89.97754 1616 ft 134 kts 178°
2026-05-05 18:31 35.10933 -89.97732 1482 ft 133 kts 178°
2026-05-05 18:31 35.10015 -89.97713 1279 ft 131 kts 178°
2026-05-05 18:31 35.09110 -89.97693 1095 ft 131 kts 179°
2026-05-05 18:32 35.08199 -89.97675 913 ft 131 kts 178°
2026-05-05 18:32 35.07290 -89.97655 740 ft 130 kts 178°
2026-05-05 18:32 35.06382 -89.97637 565 ft 130 kts 179°
2026-05-05 18:32 35.05479 -89.97613 404 ft 129 kts 178°
2026-05-05 18:33 35.04634 -89.97601 356 ft 106 kts 178°
2026-05-05 18:33 35.04207 -89.97593 356 ft 16 kts 181°
2026-05-05 18:33 35.04096 -89.97591 356 ft 16 kts 178°
2026-05-05 18:33 35.03980 -89.97596 356 ft 18 kts 190°
2026-05-05 18:34 35.03861 -89.97652 356 ft 19 kts 215°
2026-05-05 18:34 35.03803 -89.97729 356 ft 7 kts 253°
2026-05-05 18:34 35.03795 -89.97788 356 ft 4 kts 269°
2026-05-05 18:34 35.03798 -89.97800 356 ft 3 kts 299°
2026-05-05 18:35 35.03849 -89.97836 356 ft 10 kts 353°
2026-05-05 18:35 35.03923 -89.97839 356 ft 11 kts 359°
2026-05-05 18:35 35.04001 -89.97839 356 ft 12 kts
2026-05-05 18:35 35.04073 -89.97837 356 ft 10 kts
2026-05-05 18:36 35.04144 -89.97835 356 ft 8 kts
2026-05-05 18:36 35.04173 -89.97840 356 ft 1 kts 336°
2026-05-05 18:36 35.04180 -89.97846 356 ft 1 kts 322°
2026-05-05 18:36 35.04185 -89.97854 356 ft 2 kts 303°
2026-05-05 18:37 35.04189 -89.97869 356 ft 2 kts 279°
2026-05-05 18:37 35.04191 -89.97889 356 ft 5 kts 275°
2026-05-05 18:37 35.04197 -89.97952 356 ft 10 kts 283°
2026-05-05 18:37 35.04236 -89.98021 356 ft 10 kts 315°
2026-05-05 18:38 35.04269 -89.98058 356 ft 4 kts 321°
2026-05-05 18:38 35.04277 -89.98068 356 ft 1 kts 311°
2026-05-05 18:38 35.04283 -89.98088 356 ft 2 kts 280°
2026-05-05 18:38 35.04284 -89.98096 356 ft 1 kts 276°
2026-05-05 18:39 35.04284 -89.98107 356 ft 2 kts 271°
2026-05-05 18:39 35.04284 -89.98114 356 ft 0 kts 270°
2026-05-05 18:39 35.04284 -89.98115 356 ft 0 kts 270°
2026-05-05 18:39 35.04284 -89.98116 356 ft 0 kts 270°